Погода в 1-м Отделении совхоза Масловский

Россия / Воронежская область     51°32′22″N   39°20′29″E
темп.,
°C
ветер,
м/с
пор.,
м/с
влажн.,
%
обл.,
%
осадки,
мм/ч
давл.,
гПа
погр.,
м
8 августа, пн
пн800:00+22юв2242100 0.0 101713
03:00+20вюв114175 0.0 101711
06:00+20вюв114712 0.0 101811
09:00+26св113773 0.0 1019284
12:00+30всв3332100 0.0 1019875
15:00+32в22261 0.0 10182689
18:00+31зюз22315 0.0 1018307
21:00+24юв11374 0.0 101814
9 августа, вт
вт900:00+22в23424 0.0 101924
03:00+20юз114613 0.0 101811
06:00+20зсз114956 0.0 101811
09:00+27з12387 0.0 1018297
12:00+30з4432100 0.0 10181543
15:00+28зсз333713 0.0 1018488
18:00+29ююз233998 0.1 1017356
21:00+23зсз1253100 0.6 101720
10 августа, ср
ср1000:00+21с366918 0.0 101798
03:00+19ссв35875 0.0 1017117
06:00+19с36905 0.0 1018210
09:00+24св3465100 0.0 1018468
12:00+26св335597 0.0 1017774
15:00+29св3342100 0.0 10161476
18:00+28ссв5749100 0.0 1016678
21:00+22св61364100 0.2 1017408
11 августа, чт
чт1100:00+20св51369100 0.3 1017380
03:00+19св51174100 0.3 1018362
06:00+18ссв6128486 0.8 1019351
09:00+22св71068100 0.8 1019611
12:00+27всв785098 0.0 10191085
15:00+27св4751100 0.0 1019777
18:00+28св6947100 0.0 1018971
21:00+21всв5117498 1.4 1020257
12 августа, пт
пт1200:00+19св498174 0.0 1019178
03:00+19в2383100 0.2 102156
06:00+18всв4108178 0.1 1021229
09:00+22всв71167100 0.7 1021438
12:00+28в683999 0.0 1021993
15:00+32всв6831100 0.0 10191886
18:00+29св5941100 0.0 1019487
21:00+24ююв4750100 0.0 1021180